Zurück zum Katalog

FENGYUN 1C DEB

AktivPO
NORAD 30724·DEBRIS·🇨🇳 China

Gestartet May 10, 1999 von Taiyuan Satellite Launch Center

Loading…

Nächste Überflüge (nächste 24 Stunden)

TLE

AktuellSource: Space-Track

Epoche: Sep 13, 2026, 09:26 UTC

1 30724U 99025ASJ 26256.39328910  .00000544  00000-0  18942-3 0  9997
2 30724  99.3018 108.6932 0092683 180.0186 306.6544 14.37585926 23912

Verfolge FENGYUN 1C DEB in Echtzeit mit AllMySat

Download on the App Store